Location: Truman State University Observatory
(40.1787°N, 92.6006°W)
Time: 08:16:46
(UTC-05:00)

ISS - Visible Passes

Search period start: 25 September 2017 00:00
Search period end: 05 October 2017 00:00
Orbit: 401 x 407 km, 51.6° (Epoch: 25 September)

Date Brightness Start Highest point End Pass type
(mag) Time Alt. Az. Time Alt. Az. Time Alt. Az.
25 Sep -4.0 20:26:25 10° SW 20:29:40 73° SE 20:30:16 54° ENE visible
26 Sep -3.1 19:34:22 10° SSW 19:37:23 35° SE 19:40:25 10° ENE visible
26 Sep -1.6 21:10:59 10° W 21:13:14 26° NW 21:13:14 26° NW visible
27 Sep -2.9 20:18:14 10° WSW 20:21:23 46° NNW 20:23:19 21° NE visible
28 Sep -3.8 19:25:43 10° SW 19:28:59 88° NW 19:32:16 10° NE visible
28 Sep -1.3 21:03:30 10° WNW 21:05:50 18° NNW 21:05:55 18° NNW visible
29 Sep -1.8 20:10:27 10° W 20:13:14 25° NNW 20:15:44 12° NNE visible
30 Sep -2.5 19:17:36 10° WSW 19:20:40 38° NNW 19:23:47 10° NE visible
30 Sep -1.0 20:56:10 10° NW 20:57:51 13° N 20:58:05 13° N visible
01 Oct -1.3 20:02:57 10° WNW 20:05:08 16° NNW 20:07:18 10° NNE visible
02 Oct -1.0 20:48:43 10° NNW 20:49:52 11° N 20:49:57 11° N visible
03 Oct -1.1 19:55:34 10° NW 19:57:04 12° N 19:58:35 10° NNE visible
04 Oct -1.0 20:40:37 10° NNW 20:41:38 12° N 20:41:38 12° N visible
